Overview Statistics Trail Chart Weather Telemetry Raw packets
 

This is the latest recevied weather packets stored in our database for station/object M0JUI-1. If no packets are shown the sender has not sent any weather packets the latest 10 day(s).

<< 98 99 100 101 102 103 104 >>
Time Temp. Humidity Pressure Rain* Wind** Luminosity Snow
1787905328 15° C 28% 1004.3 hPa 0 mm - 145 W/m² -
1787905017 15° C 28% 1004.5 hPa 0 mm - 121 W/m² -
1787904717 15° C 28% 1004.5 hPa 0 mm - 111 W/m² -
1787904416 15° C 29% 1004.5 hPa 0 mm - 107 W/m² -
1787904116 14.44° C 29% 1004.5 hPa 0 mm - 107 W/m² -
1787903817 14.44° C 29% 1004.6 hPa 0 mm - 104 W/m² -
1787903516 14.44° C 29% 1004.6 hPa 0 mm - 102 W/m² -
1787903216 14.44° C 29% 1004.6 hPa 0 mm - 97 W/m² -
1787902904 14.44° C 29% 1004.8 hPa 0 mm - 92 W/m² -
1787902604 14.44° C 29% 1004.5 hPa 0 mm - 84 W/m² -
1787902304 14.44° C 29% 1004.5 hPa 0 mm - 79 W/m² -
1787902004 14.44° C 29% 1004.6 hPa 0 mm - 71 W/m² -
1787901704 14.44° C 29% 1004.5 hPa 0 mm - 70 W/m² -
1787901405 14.44° C 29% 1004.5 hPa 0 mm - 71 W/m² -
1787901104 14.44° C 29% 1004.6 hPa 0 mm - 72 W/m² -
1787900804 14.44° C 29% 1004.7 hPa 0 mm - 70 W/m² -
1787900505 14.44° C 29% 1004.5 hPa 0 mm - 67 W/m² -
1787900205 14.44° C 29% 1004.5 hPa 0 mm - 63 W/m² -
1787899904 14.44° C 29% 1004.7 hPa 0 mm - 55 W/m² -
1787899604 14.44° C 29% 1004.6 hPa 0 mm - 49 W/m² -
1787899304 14.44° C 29% 1004.8 hPa 0 mm - 49 W/m² -
1787899005 14.44° C 29% 1004.8 hPa 0 mm - 48 W/m² -
1787898704 14.44° C 29% 1004.8 hPa 0 mm - 42 W/m² -
1787898404 14.44° C 29% 1004.8 hPa 0 mm - 37 W/m² -
1787898104 14.44° C 29% 1004.7 hPa 0 mm - 32 W/m² -

* Rain latest hour (hover to see other rain measurements)
** Current wind speed in m/s (hover to see current wind gust speed)